Location: Ammerl�gen
(47.2167°N, 9.6000°E)
Time: 04:56:30
(UTC+00:00)

FALCON 9 DEB - Pass Details

Date: 21 April 2021
Orbit: 364 x 383 km, 53.0° (Epoch: 16 May)

Event Time Altitude Azimuth Distance (km) Brightness Sun altitude
Rises 20:08:23 0° 231° (SW) 2,192 6.8 -16.9°
Reaches altitude 10° 20:10:24 10° 228° (SW) 1,349 5.7 -17.1°
Enters shadow 20:13:00 55° 188° (S) 447 2.9 -17.5°
